Location: Ciechanow
(52.8812°N, 20.6195°E)
Time: 01:54:28
(UTC+01:00)

ISS - Pass Details

Date: 01 February 2019
Orbit: 403 x 411 km, 51.6° (Epoch: 17 February)

Event Time Altitude Azimuth Distance (km) Brightness Sun altitude
Rises 18:56:18 0° 277° (W) 2,339 1.5 -23.3°
Reaches altitude 10° 18:58:24 10° 273° (W) 1,478 0.1 -23.6°
Enters shadow 19:00:40 37° 251° (WSW) 655 -2.4 -24.0°
